Jefferson City, MO

8:24 AM CDT on June 28, 2017 (GMT -0500)
Jefferson City Memorial

Weather History for KJEF - November, 2011

Change the Weather History Date:

Friday, November 11, 2011

  Actual Average Record
Temperature  
Mean Temperature 48 °F -  
Max Temperature 69 °F 54 °F 83 °F (1949)
Min Temperature 28 °F 32 °F 11 °F (1950)
Degree Days  
Heating Degree Days 16    
Moisture  
Dew Point 28 °F    
Average Humidity 44    
Maximum Humidity 75    
Minimum Humidity 22    
Precipitation  
Precipitation 0.00 in - - ()
Sea Level Pressure  
Sea Level Pressure 29.89 in    
Wind  
Wind Speed 7 mph (SSE)    
Max Wind Speed 21 mph    
Max Gust Speed 28 mph    
Visibility 10 miles    
Events      
Averages and records for this station are not official NWS values.
T = Trace of Precipitation, MM = Missing Value Source: NWS Daily Summary

Daily Weather History Graph

Daily Weather History Graph

Search for Another Location

Airport or City:

Trip Planner

Search our weather history database for the weather conditions in past years. The results will help you decide how hot, cold, wet, or windy it might be!

Date:

Astronomy

Nov. 11, 2011 Rise Set
Actual Time 6:45 AM CST 4:58 PM CST
Civil Twilight 6:17 AM CST 5:26 PM CST
Nautical Twilight 5:46 AM CST 5:58 PM CST
Astronomical Twilight 5:14 AM CST 6:30 PM CST
Moon 5:29 PM CST (11/11) 7:33 AM CST (11/11)
Length of Visible Light 11h 09m
Length of Day
10h 12m
Full, 99% of the Moon is Illuminated
Nov 11
Full
Nov 18
Last Quarter
Nov 25
New
Dec 2
First Quarter
Dec 10
Full

Hourly Weather History & Observations

Time (CST) Temp. Windchill Dew Point Humidity Pressure Visibility Wind Dir Wind Speed Gust Speed Precip Events Conditions
12:53 AM 28.9 °F 25.2 °F 21.9 °F 75% 30.12 in 10.0 mi ESE 3.5 mph - N/A   Clear
1:53 AM 28.9 °F 23.9 °F 21.9 °F 75% 30.11 in 10.0 mi ESE 4.6 mph - N/A   Clear
3:53 AM 30.0 °F 23.2 °F 23.0 °F 75% 30.06 in 10.0 mi ESE 6.9 mph - N/A   Clear
4:53 AM 30.0 °F 24.1 °F 21.9 °F 72% 30.05 in 10.0 mi ESE 5.8 mph - N/A   Clear
6:53 AM 34.0 °F 26.0 °F 21.0 °F 59% 30.00 in 10.0 mi East 10.4 mph - N/A   Clear
7:53 AM 36.0 °F 29.6 °F 24.1 °F 62% 29.98 in 10.0 mi East 8.1 mph - N/A   Clear
10:53 AM 55.0 °F - 33.1 °F 43% 29.90 in 10.0 mi South 8.1 mph - N/A   Clear
11:53 AM 60.1 °F - 33.1 °F 36% 29.86 in 10.0 mi South 11.5 mph - N/A   Clear
12:53 PM 66.0 °F - 30.9 °F 27% 29.81 in 10.0 mi SSW 18.4 mph 25.3 mph N/A   Clear
1:53 PM 69.1 °F - 28.0 °F 22% 29.78 in 10.0 mi SW 20.7 mph 27.6 mph N/A   Clear
2:53 PM 69.1 °F - 28.0 °F 22% 29.79 in 10.0 mi WSW 11.5 mph 23.0 mph N/A   Clear
3:53 PM 68.0 °F - 28.0 °F 22% 29.79 in 10.0 mi SW 15.0 mph 19.6 mph N/A   Clear
4:53 PM 66.0 °F - 28.0 °F 24% 29.80 in 10.0 mi SW 8.1 mph - N/A   Clear
5:53 PM 62.1 °F - 28.9 °F 29% 29.81 in 10.0 mi Calm Calm - N/A   Clear
6:53 PM 59.0 °F - 30.0 °F 33% 29.82 in 10.0 mi Calm Calm - N/A   Clear
7:53 PM 48.9 °F - 32.0 °F 52% 29.83 in 10.0 mi Calm Calm - N/A   Clear
8:53 PM 55.9 °F - 30.0 °F 37% 29.83 in 10.0 mi South 3.5 mph - N/A   Clear
9:53 PM 55.0 °F - 30.0 °F 38% 29.84 in 10.0 mi Calm Calm - N/A   Clear
10:53 PM 55.0 °F - 30.0 °F 38% 29.84 in 10.0 mi SSE 4.6 mph - N/A   Clear
11:53 PM 50.0 °F - 30.9 °F 48% 29.84 in 10.0 mi Calm Calm - N/A   Clear